Theta_e
332 331 336 335 327 326 324 327 336 337 337 337 340 343 340 338 337 335 333 329 327 327 328 332 334 328 326 326 330 330 334 330 327 327 328 328 331 332 333 333 333 332 333
335 328 336 336 330 322 326 325 329 331 333 335 336 339 338 338 336 335 334 328 325 326 330 332 339 338 335 332 331 328 331 328 327 330 328 331 334 334 334 334 334 333 331
338 326 335 336 333 321 321 323 326 328 328 328 331 334 336 336 335 335 332 327 325 326 330 334 338 340 339 337 336 334 329 328 331 330 329 333 336 336 335 335 334 334 334
338 328 331 337 335 325 322 321 322 322 325 327 327 328 329 330 329 329 328 327 325 326 330 335 337 337 337 338 337 333 323 327 331 330 330 332 335 337 337 336 335 335 335
340 328 330 336 335 330 325 325 323 322 322 323 325 325 325 325 325 326 326 326 324 327 330 332 334 331 327 327 327 324 321 328 331 331 329 328 334 335 337 336 335 336 336
340 327 330 335 335 333 329 329 329 327 324 323 323 323 323 324 324 324 324 324 324 326 329 331 333 333 331 329 326 322 319 327 330 329 329 327 329 330 332 336 335 336 337
338 329 329 333 336 335 332 331 331 332 331 327 324 323 323 323 324 324 325 326 326 327 327 328 329 330 330 331 330 321 318 320 323 327 328 326 325 323 326 334 336 336 337
335 329 326 331 335 335 334 332 332 332 331 330 329 326 324 324 324 325 324 324 324 323 323 322 324 327 329 330 329 323 318 319 321 323 326 325 324 321 321 329 335 336 336
334 329 326 330 333 335 334 334 332 330 328 328 328 328 325 324 324 324 324 324 324 323 321 319 319 321 323 323 323 322 320 318 321 322 324 324 322 319 318 320 333 335 335
334 331 328 331 333 334 333 333 333 331 329 326 325 325 324 323 323 323 324 325 326 326 324 321 318 317 319 321 322 322 321 318 318 320 322 322 320 318 318 326 322 324 333
334 330 329 331 332 333 332 331 332 332 330 325 324 324 323 323 323 322 323 324 325 326 326 326 324 320 315 315 317 317 317 316 316 316 318 319 318 317 325 336 331 327 332
334 330 328 330 330 331 331 330 328 329 328 324 323 323 322 322 322 322 322 322 323 324 325 325 325 325 324 321 317 314 313 313 314 314 315 315 316 316 325 334 333 335 336
337 332 329 327 328 329 326 325 325 324 323 323 323 323 323 322 322 322 322 321 321 322 323 324 325 327 330 333 335 335 333 330 324 318 314 314 315 315 316 334 335 335 335
341 341 333 331 328 327 327 326 322 321 321 322 322 322 322 323 323 323 322 322 322 322 322 323 326 334 336 336 337 338 339 338 338 336 332 321 315 315 316 325 335 335 335
334 338 342 339 336 330 326 325 323 321 321 322 322 323 323 323 324 323 323 323 323 323 323 324 326 335 337 338 339 339 339 338 338 338 337 334 331 327 319 327 335 335 335
339 337 338 340 343 341 332 326 323 323 324 324 325 328 331 331 329 328 327 327 326 326 326 329 329 335 338 340 340 340 339 339 340 339 338 338 337 336 333 330 335 336 336
344 342 340 337 337 339 343 338 327 329 328 328 329 329 330 331 333 332 332 329 329 329 332 336 336 336 338 339 340 340 342 341 342 341 341 339 338 337 337 337 335 337 337
346 342 339 337 338 343 345 343 334 330 330 336 336 340 338 337 335 334 336 336 333 334 336 338 339 339 340 339 337 338 335 332 335 341 341 340 339 338 337 337 337 337 337
336 343 343 339 339 340 341 342 340 337 337 339 338 337 334 333 332 334 333 330 334 337 338 337 338 338 338 336 334 337 332 334 338 342 341 339 338 337 337 337 336 335 334
333 333 331 329 330 336 336 339 341 341 339 333 330 336 332 333 331 328 335 332 331 334 337 333 335 334 334 334 332 334 332 333 340 339 337 335 335 333 336 334 335 334 334
320 320 318 317 319 320 317 321 331 337 337 337 335 331 330 331 327 332 329 327 331 335 334 328 331 330 334 333 333 333 333 336 338 337 337 334 332 330 330 331 329 328 328
316 317 317 317 317 317 316 317 321 325 329 335 336 336 333 331 331 332 332 331 330 327 328 332 332 333 333 336 334 334 338 337 336 334 333 331 327 327 327 328 328 330 331
320 320 319 318 319 319 317 316 315 317 323 327 329 333 336 337 336 334 334 331 331 329 330 330 330 331 332 337 336 338 337 334 332 332 331 327 326 325 325 327 329 330 327
323 322 321 320 319 318 317 316 314 314 317 322 327 332 332 334 334 333 331 332 331 329 328 335 332 334 339 340 339 337 338 338 334 331 328 326 326 325 325 324 323 323 322
323 322 321 320 319 317 315 315 314 314 317 317 321 326 332 332 331 330 331 335 336 335 334 335 335 337 338 340 338 338 337 336 333 332 328 327 325 323 323 323 322 321 322
324 324 322 320 318 316 318 316 316 316 317 317 317 317 325 329 328 328 327 327 328 329 329 331 336 336 336 335 335 333 333 333 331 330 329 327 324 321 318 318 319 321 322
Wind_Speed
18 26 25 21 17 17 19 22 23 22 21 23 25 26 24 24 22 20 18 18 20 20 20 20 18 18 19 18 15 13 14 14 13 13 11 10 9 9 9 9 8 7 6
18 25 26 23 18 17 18 20 22 22 21 21 23 26 25 23 21 19 19 19 20 20 19 20 17 18 18 16 14 12 12 13 13 12 11 9 8 7 7 7 6 6 4
19 24 26 25 21 18 18 18 20 21 21 21 22 23 23 23 20 19 19 20 20 20 19 18 17 17 17 15 13 12 13 14 14 12 10 9 8 8 8 7 4 4 1
19 23 26 27 24 20 18 18 18 19 20 21 22 23 23 21 20 19 19 19 19 19 18 18 17 16 16 16 15 14 14 15 14 12 11 10 9 9 11 10 6 5 3
17 23 26 27 25 22 20 19 18 17 17 18 20 20 20 20 19 18 18 18 18 18 18 17 16 15 14 15 15 15 16 16 15 15 13 12 10 9 12 13 10 8 6
14 23 25 27 27 24 23 21 20 19 18 18 18 19 19 18 18 17 16 16 16 17 17 16 16 15 16 16 16 18 18 18 18 17 15 14 14 12 12 14 13 11 10
13 18 24 25 27 25 24 23 21 20 19 19 19 19 18 18 18 17 17 16 16 17 17 18 18 18 18 18 18 19 20 20 20 18 17 15 14 14 14 16 15 13 13
14 17 22 23 26 25 23 22 22 21 20 19 19 18 19 19 19 18 18 17 17 17 17 17 18 18 19 20 20 20 21 21 21 20 19 17 16 15 15 16 17 17 17
16 15 19 22 25 25 24 23 21 20 19 19 19 19 19 19 19 19 18 18 16 15 15 15 17 19 20 21 21 21 21 22 22 21 19 19 17 17 16 17 19 21 20
16 14 19 23 24 25 25 24 22 21 19 19 19 19 19 19 19 19 19 19 18 17 16 15 15 17 19 21 21 22 22 22 22 21 21 20 20 19 20 20 22 24 24
14 15 20 23 25 25 24 24 23 23 21 21 21 20 20 20 20 20 20 20 19 18 18 17 15 15 16 19 20 20 22 23 23 24 24 22 22 21 21 21 21 22 24
16 17 21 23 25 26 26 25 25 26 25 24 23 22 21 21 21 21 21 21 21 21 21 20 18 17 17 17 17 19 22 23 24 25 25 24 25 24 22 19 21 21 24
18 20 21 24 25 27 25 25 26 26 26 26 25 23 23 23 22 23 22 22 22 23 23 23 22 21 19 17 14 14 16 19 21 24 26 26 27 26 25 25 22 24 25
17 21 24 23 25 28 28 28 28 26 25 25 24 24 24 24 25 25 25 25 25 24 24 24 22 20 20 18 18 18 18 20 21 22 23 25 27 28 27 27 24 24 26
19 19 25 27 27 29 30 30 30 30 26 25 24 24 25 26 28 28 27 27 26 25 25 25 24 23 22 21 21 21 22 23 24 25 26 26 26 27 27 28 26 26 29
28 20 22 23 29 33 34 32 32 31 29 27 28 28 29 30 31 32 32 31 29 29 28 26 26 26 26 25 24 23 25 26 27 28 29 31 30 28 28 30 30 29 33
27 31 24 32 34 35 36 33 33 29 27 28 30 32 33 33 32 33 32 31 30 28 27 26 26 25 27 26 27 26 25 28 30 29 31 31 31 29 28 32 32 33 34
31 27 12 10 16 20 26 28 27 25 26 24 25 25 24 17 20 18 23 30 30 31 32 31 27 25 26 26 25 26 25 32 30 30 31 25 25 25 26 31 35 31 30
27 32 32 19 12 16 20 22 15 19 18 12 9 3 13 20 30 19 21 32 37 40 33 31 32 17 28 29 27 29 30 32 27 25 23 23 25 25 28 32 32 32 33
34 35 36 36 34 25 20 13 9 9 5 28 39 30 38 38 35 46 32 33 42 39 36 30 26 20 31 33 28 31 34 30 23 23 20 24 26 26 28 30 32 34 33
39 40 41 41 39 36 35 32 27 22 18 16 25 30 29 33 18 28 27 28 24 31 38 36 31 25 33 30 32 36 35 26 21 23 20 18 21 23 23 24 26 24 21
36 36 35 36 36 37 36 33 27 22 19 16 14 14 13 21 17 22 21 27 30 32 29 15 25 26 29 27 26 23 15 20 18 13 14 16 13 14 15 16 17 14 16
33 32 31 31 33 34 34 31 28 23 19 17 15 14 10 16 21 28 28 29 30 31 18 20 28 26 33 31 20 12 7 9 7 10 10 8 7 8 8 8 8 9 9
30 30 30 31 31 31 31 32 29 26 20 18 17 14 14 14 16 20 22 23 25 26 32 35 37 34 23 20 17 18 21 21 11 5 9 11 11 8 9 8 8 8 13
26 27 29 30 32 32 28 23 26 23 20 19 18 17 15 15 16 20 22 25 28 29 30 31 25 20 18 19 18 18 19 22 20 18 9 8 6 4 6 10 11 13 15
21 26 27 29 29 27 24 25 23 23 28 29 26 21 18 16 18 18 18 21 25 26 27 24 23 21 21 21 20 19 19 20 20 18 13 10 8 4 4 6 7 14 15
Wind_Direction
175 175 177 174 173 175 170 166 165 160 158 156 160 168 168 165 163 162 162 164 166 167 166 161 160 164 166 167 164 158 158 160 163 161 158 152 144 135 129 121 117 106 75
177 175 177 176 175 176 173 168 167 166 166 164 163 170 171 170 170 170 172 173 173 173 174 173 171 168 169 169 173 174 172 171 172 174 171 172 168 159 159 150 133 129 95
185 179 178 178 178 179 176 171 168 169 169 170 171 173 177 177 178 180 181 179 180 180 179 181 181 179 180 181 188 194 187 183 183 182 186 186 189 194 195 183 174 175 154
190 185 181 180 180 182 178 174 171 170 169 171 173 176 179 181 183 184 183 184 186 187 188 188 187 189 190 195 202 205 198 195 193 194 197 205 218 225 211 202 208 223 254
196 192 185 183 182 184 183 179 175 174 175 176 177 179 181 183 185 187 188 190 192 195 198 199 199 198 200 203 208 211 208 205 205 209 211 217 225 226 215 212 219 228 245
193 192 190 187 184 186 187 185 182 182 182 183 185 187 189 189 189 193 194 197 200 205 209 212 214 214 215 215 216 217 215 215 214 217 218 225 234 246 236 227 231 238 246
181 195 194 190 189 190 193 193 191 191 192 192 192 193 194 195 197 198 199 204 208 213 217 220 222 222 221 222 223 221 219 221 224 226 228 233 241 250 246 234 232 240 246
190 199 195 192 192 195 199 202 202 202 203 201 201 201 201 202 204 207 210 214 217 219 222 227 229 230 230 230 229 226 223 225 228 231 234 240 246 250 247 240 235 241 246
199 200 193 194 196 200 204 209 212 213 212 209 208 209 210 212 213 214 217 220 222 224 228 231 233 233 235 235 236 234 232 232 233 234 237 241 247 254 254 246 236 240 248
201 205 198 197 200 205 208 213 219 222 221 220 218 218 218 220 222 223 225 227 229 231 234 237 238 237 236 238 238 239 240 241 242 241 244 247 252 254 255 254 246 240 242
217 214 210 204 205 210 214 218 222 227 226 226 226 226 226 228 229 231 233 235 237 240 242 243 246 247 246 245 244 245 247 246 247 248 249 253 256 259 257 254 247 242 238
225 224 225 221 214 215 217 221 225 228 229 229 230 231 234 235 237 239 240 242 245 247 248 249 250 251 251 249 248 248 250 253 256 259 260 259 259 260 257 254 248 244 243
241 235 232 233 231 225 226 228 231 231 233 235 237 239 242 243 243 245 247 248 250 251 253 253 253 251 250 256 259 267 273 274 272 271 269 265 263 262 259 251 253 254 246
277 260 243 244 245 239 235 235 240 242 242 243 245 249 252 255 256 254 255 255 256 260 265 266 264 261 262 264 271 276 275 276 278 281 280 269 266 265 264 258 259 259 247
320 296 268 258 254 252 246 242 243 248 250 253 255 255 257 262 264 262 264 266 269 272 273 271 266 262 264 268 273 275 277 279 280 280 278 276 270 266 263 261 258 262 247
310 299 279 271 269 265 259 255 254 255 259 260 263 267 273 277 277 278 276 277 277 277 276 272 266 267 271 276 275 277 281 282 283 281 278 275 274 269 262 261 255 261 249
317 305 275 272 280 280 270 266 265 268 282 284 284 286 289 291 287 282 281 277 277 276 274 275 266 258 261 269 277 278 285 289 284 280 274 268 271 272 262 259 254 263 254
20 13 349 285 284 289 281 285 275 274 278 299 297 293 282 308 301 302 305 286 273 269 272 270 268 269 273 274 269 274 285 296 281 275 282 280 281 276 271 255 257 258 256
31 36 27 27 355 320 310 301 292 260 262 313 328 87 5 354 337 312 308 322 292 274 271 281 276 265 267 269 275 271 290 301 280 277 286 285 281 279 273 268 265 261 262
55 48 46 45 45 46 31 14 346 319 281 301 301 274 294 299 282 282 285 279 271 271 266 273 271 263 277 274 274 282 289 298 286 286 290 288 286 274 266 265 267 265 264
42 41 43 47 51 50 48 46 42 34 12 339 274 276 278 264 246 258 257 255 292 255 264 283 270 269 268 270 271 277 288 291 278 282 277 278 279 273 269 263 265 266 250
54 50 46 42 39 38 37 36 36 32 24 10 354 272 259 235 258 277 280 274 285 282 285 289 243 266 270 275 269 273 276 286 288 271 265 272 275 268 264 263 259 247 232
48 45 41 39 36 31 30 26 22 17 12 8 360 344 316 270 265 275 280 278 266 270 239 269 288 275 281 283 263 244 244 242 250 262 271 251 262 267 253 249 250 241 213
45 39 34 31 33 28 20 15 16 11 0 352 344 338 329 316 302 289 273 277 276 254 256 278 285 286 276 263 258 255 247 250 266 242 232 221 251 267 248 245 238 219 211
33 24 21 21 20 21 26 29 17 8 357 342 330 329 315 317 319 311 289 281 282 276 275 276 276 276 253 251 248 250 255 242 249 248 220 229 229 230 250 246 236 231 227
14 5 1 7 12 13 8 9 11 7 355 346 342 325 320 315 316 321 319 300 287 281 276 270 261 264 264 257 254 254 248 248 235 227 224 225 205 212 226 228 225 227 227